User: anonymous   Login
Location: Wildcat Hills Observatory
(41.6350°N, 103.6812°W)
Time: 05:14:32
(UTC-07:00)
Language:

Cosmos 1634 Rocket - Orbit

View from above orbital plane
View from above orbital plane
View from above satellite
View from above satellite

Ground track
Ground track

The orbit data is extracted from the following two-line orbital elements,

1 15598U 85022B   14327.91466271  .00000143  00000-0  13088-3 0  7795
2 15598 082.9384 083.0046 0022094 204.3104 295.5130 13.76497999491650
Epoch (UTC): 23 November 2014 21:57:06
Eccentricity: 0.0022094
inclination: 82.9384°
perigee height: 960 km
apogee height: 992 km
right ascension of ascending node: 83.0046°
argument of perigee: 204.3104°
revolutions per day: 13.76497999
mean anomaly at epoch: 295.5130°
orbit number at epoch: 49165

The dashed part of the orbit path shows where the satellite is in the earth's shadow,  

DLR